Regional Weather Roundup
Issued by NWS New Orleans/Baton Rouge, LA

Home | Current Version | Previous Version | Text Only | Print | Product List | Glossary On
Versions: 1 2 3 4 5 6 7 8 9 10 11 12 13 14 15 16 17 18 19 20 21 22 23 24 25 26 27 28 29 30 31 32 33 34 35 36 37 38 39 40 41 42 43 44 45 46 47 48 49 50
000
ASUS44 KLIX 312210
RWRLIX
NEW ORLEANS REGIONAL WEATHER ROUNDUP
NATIONAL WEATHER SERVICE NEW ORLEANS LA
500 PM CDT MON AUG 31 2015

NOTE: "FAIR" INDICATES FEW OR NO CLOUDS BELOW 12,000 FEET WITH NO
      SIGNIFICANT WEATHER AND/OR OBSTRUCTIONS TO VISIBILITY.
      SKY/WX - SKY CONDITION AND SIGNIFICANT WEATHER.
      TMP - AIR TEMPERATURE.     DP    - DEWPOINT TEMPERATURE.
      RH  - RELATIVE HUMIDITY.   PRES  - PRESSURE.
      HI  - HEAT INDEX.          WCI   - WIND CHILL INDEX.

*  THESE STATIONS ARE NOT NWS OR FAA STATIONS AND ARE NOT UNDER
   NWS QUALITY CONTROL.

LAZ038-040-048-061>063-065>067-069-312300-
SOUTHEAST LOUISIANA

CITY           SKY/WX    TMP DP  RH WIND       PRES   REMARKS
N.O. AUDUBON     N/A     93  68  44 MISG        N/A  HX  97
N.O. INTL ARPT PTSUNNY   92  63  38 NE7       30.00F
N.O. LAKEFRONT SUNNY     91  67  44 N5        30.01F
N.O. DOWNTOWN* MOCLDY    91  64  40 SE6       30.01S
RESERVE*         N/A     92  66  42 CALM      30.01S
SLIDELL        MOSUNNY   90  71  53 S10       30.00S HX  96
BATON ROUGE    PTSUNNY   87  71  58 W3        30.01F
BOOTHVILLE     SUNNY     87  70  56 E6        30.03F
BELLE CHASSE   MOSUNNY   90  63  40 E10       30.01S
BOGALUSA*      NOT AVBL
GALLIANO*      CLEAR     92  70  48 CALM      30.02S HX  97
NEW ROADS*       N/A     86  69  55 CALM      30.02S
GONZALES*      MOCLDY    85  74  69 CALM      30.01S
HAMMOND*       PTSUNNY   88  66  48 SW9       30.02F
HOUMA*         NOT AVBL
PORT FOURCHON* CLEAR     86  70  58 E10       30.03S

$$

MSZ070-080>082-312300-
SOUTHERN MISSISSIPPI

CITY           SKY/WX    TMP DP  RH WIND       PRES   REMARKS
MCCOMB         CLOUDY    91  64  40 S8        30.02S
GULFPORT       SUNNY     88  68  51 S10       30.01S
BILOXI         SUNNY     89  71  55 S10       30.01S
PASCAGOULA     SUNNY     89  70  53 S7        30.01S
STENNIS ARPT*  MOSUNNY   90  63  40 S8        30.01S

$$

COASTAL OBSERVATIONS
LAKE AND NEARSHORE STATIONS

STATION/POSITION TIME  TEMP    WIND        PRES    WAVE
                       AIR SEA DIR/SP/G            HT/PER
                 (UTC) (F)     (DEG/KT/KT) (MB)    (FT/S)
PASCAGOULA       2100   88     190/  8/ 10 1016.0
WAVELAND YACHT   2100   85 83  170/ 10/ 12 1016.8
GRAND ISLE       2100   87 86  110/  5/  7 1017.2
SOUTHWEST PASS   2100   92 87   70/  8/ 10 1017.4
NEW CANAL        2100   88 86   CALM  /  3 1015.7
SHELL BEACH      2100   87 87   40/  3/  3 1016.1

OFFSHORE STATIONS

STATION/POSITION TIME  TEMP    WIND        PRES    WAVE
                       AIR SEA DIR/SP/G            HT/PER
                 (UTC) (F)     (DEG/KT/KT) (MB)    (FT/S)
64 S DAUPHIN ISL 2150   83 88   70/  8/  8 1017.0    1/ 6

$$



USA.gov is the U.S. government's official web portal to all federal, state and local government web resources and services.